Location: Esp�s Alto
(42.4476°N, 0.5876°E)
Time: 11:44:57
(UTC+00:00)

PAYLOAD A - Pass Details

Date: 22 October 2019
Orbit: 692 x 832 km, 98.3° (Epoch: 13 November)

Event Time Altitude Azimuth Distance (km) Brightness Sun altitude
Rises 04:02:59 0° 16° (NNE) 3,139 7.5 -25.6°
Reaches altitude 10° 04:05:15 10° 19° (NNE) 2,232 6.7 -25.2°
Maximum altitude 04:10:07 67° 102° (ESE) 813 4.2 -24.3°
Drops below altitude 10° 04:15:10 10° 185° (S) 2,304 6.4 -23.4°
Sets 04:17:32 0° 188° (S) 3,249 7.1 -22.9°
